Weather History for KMOB - November, 2012

Change the Weather History Date:

Thursday, November 15, 2012

  Actual Average Record
Temperature  
Mean Temperature 52 °F 60 °F  
Max Temperature 64 °F 71 °F 83 °F (1980)
Min Temperature 40 °F 49 °F 25 °F (1940)
Degree Days  
Heating Degree Days 13 6  
Month to date heating degree days 104 76  
Since 1 July heating degree days 159 131  
Cooling Degree Days 0 1  
Month to date cooling degree days 15 27  
Year to date cooling degree days 2697 2489  
Growing Degree Days 2 (Base 50)    
Moisture  
Dew Point 43 °F    
Average Humidity 71    
Maximum Humidity 93    
Minimum Humidity 48    
Precipitation  
Precipitation 0.00 in 0.18 in 5.70 in (2006)
Month to date precipitation 0.29 2.57  
Year to date precipitation 64.48 58.53  
Snow  
Snow 0.00 in 0.00 in 0.00 in (2002)
Month to date snowfall 0.0 0.0  
Since 1 July snowfall 0.0 0.0  
Snow Depth 0.00 in    
Sea Level Pressure  
Sea Level Pressure 30.25 in    
Wind  
Wind Speed 5 mph (NNE)    
Max Wind Speed 15 mph    
Max Gust Speed 21 mph    
Visibility 7 miles    
Events Fog    
T = Trace of Precipitation, MM = Missing Value Source: NWS Daily Summary

Daily Weather History Graph

Daily Weather History Graph

Search for Another Location

Airport or City:

Trip Planner

Search our weather history database for the weather conditions in past years. The results will help you decide how hot, cold, wet, or windy it might be!

Date:

Astronomy

Nov. 15, 2012 Rise Set
Actual Time 6:19 AM CST 4:55 PM CST
Civil Twilight 5:54 AM CST 5:20 PM CST
Nautical Twilight 5:25 AM CST 5:50 PM CST
Astronomical Twilight 4:56 AM CST 6:18 PM CST
Moon 8:10 AM CST (11/15) 6:50 PM CST (11/15)
Length of Visible Light 11h 26m
Length of Day
10h 35m
Waxing Crescent, 5% of the Moon is Illuminated
Nov 15
Waxing Crescent
Nov 20
First Quarter
Nov 28
Full
Dec 6
Last Quarter
Dec 13
New

Hourly Weather History & Observations

Time (CST) Temp. Windchill Dew Point Humidity Pressure Visibility Wind Dir Wind Speed Gust Speed Precip Events Conditions
12:56 AM 43.0 °F - 39.9 °F 89% 30.23 in 10.0 mi Calm Calm - N/A   Scattered Clouds
1:56 AM 43.0 °F - 39.9 °F 89% 30.22 in 9.0 mi Calm Calm - N/A   Partly Cloudy
2:56 AM 41.0 °F 39.0 °F 39.0 °F 93% 30.22 in 5.0 mi NW 3.5 mph - N/A   Partly Cloudy
3:56 AM 39.9 °F 37.8 °F 37.9 °F 93% 30.22 in 8.0 mi NNW 3.5 mph - N/A   Clear
4:56 AM 39.9 °F 36.7 °F 37.9 °F 93% 30.23 in 8.0 mi North 4.6 mph - N/A   Clear
5:56 AM 41.0 °F 39.0 °F 39.0 °F 93% 30.23 in 8.0 mi NNE 3.5 mph - N/A   Clear
6:14 AM 41.0 °F 36.4 °F 39.2 °F 93% 30.23 in 5.0 mi NNE 6.9 mph - N/A   Partly Cloudy
6:33 AM 42.8 °F 38.6 °F 39.2 °F 87% 30.24 in 5.0 mi NNE 6.9 mph - N/A   Mostly Cloudy
6:56 AM 44.1 °F 40.1 °F 42.1 °F 93% 30.25 in 5.0 mi NNE 6.9 mph - N/A   Overcast
7:09 AM 44.6 °F 40.2 °F 42.8 °F 93% 30.26 in 2.0 mi NNE 8.1 mph - N/A   Overcast
7:12 AM 44.6 °F 42.2 °F 42.8 °F 93% 30.26 in 0.5 mi NNE 4.6 mph - N/A Fog Fog
7:29 AM 44.6 °F 40.7 °F 42.8 °F 93% 30.26 in 0.2 mi NNE 6.9 mph - N/A Fog Fog
7:56 AM 45.0 °F 42.6 °F 43.0 °F 93% 30.26 in 0.2 mi NE 4.6 mph - N/A Fog Fog
8:30 AM 46.4 °F 45.2 °F 44.6 °F 93% 30.28 in 0.5 mi North 3.5 mph - N/A Fog Fog
8:40 AM 46.4 °F 44.3 °F 44.6 °F 93% 30.28 in 1.0 mi North 4.6 mph - N/A   Overcast
8:49 AM 46.4 °F 43.5 °F 44.6 °F 93% 30.29 in 3.0 mi NNE 5.8 mph - N/A   Overcast
8:56 AM 46.9 °F - 45.0 °F 93% 30.29 in 4.0 mi NE 5.8 mph - N/A   Overcast
9:42 AM 48.2 °F - 44.6 °F 87% 30.29 in 10.0 mi North 6.9 mph - N/A   Mostly Cloudy
9:51 AM 51.8 °F - 44.6 °F 76% 30.29 in 10.0 mi NNE 8.1 mph - N/A   Partly Cloudy
9:56 AM 52.0 °F - 44.1 °F 74% 30.29 in 10.0 mi NNE 5.8 mph - N/A   Scattered Clouds
10:56 AM 57.9 °F - 43.0 °F 58% 30.26 in 10.0 mi North 12.7 mph 19.6 mph N/A   Scattered Clouds
11:56 AM 61.0 °F - 43.0 °F 52% 30.24 in 10.0 mi North 10.4 mph - N/A   Partly Cloudy
12:56 PM 63.0 °F - 43.0 °F 48% 30.22 in 10.0 mi NNE 9.2 mph - N/A   Partly Cloudy
1:56 PM 64.0 °F - 44.1 °F 48% 30.19 in 10.0 mi North 8.1 mph - N/A   Scattered Clouds
2:56 PM 64.0 °F - 44.1 °F 48% 30.19 in 10.0 mi NE 8.1 mph - N/A   Mostly Cloudy
3:56 PM 61.0 °F - 44.1 °F 54% 30.19 in 10.0 mi NE 4.6 mph - N/A   Mostly Cloudy
4:56 PM 57.0 °F - 44.1 °F 62% 30.21 in 10.0 mi NE 4.6 mph - N/A   Mostly Cloudy
5:56 PM 52.0 °F - 43.0 °F 71% 30.22 in 10.0 mi Calm Calm - N/A   Scattered Clouds
6:56 PM 48.9 °F - 44.1 °F 83% 30.23 in 10.0 mi NNW 3.5 mph - N/A   Scattered Clouds
7:56 PM 48.9 °F - 44.1 °F 83% 30.25 in 10.0 mi NE 4.6 mph - N/A   Partly Cloudy
8:56 PM 48.0 °F - 44.1 °F 86% 30.26 in 10.0 mi ENE 6.9 mph - N/A   Clear
9:56 PM 46.9 °F - 43.0 °F 86% 30.27 in 10.0 mi ENE 5.8 mph - N/A   Clear
10:56 PM 46.9 °F - 43.0 °F 86% 30.27 in 10.0 mi NE 3.5 mph - N/A   Clear
11:56 PM 46.0 °F 44.8 °F 43.0 °F 89% 30.25 in 10.0 mi NE 3.5 mph - N/A   Clear